Brunswick, GA

1:50 PM EST on January 24, 2017 (GMT -0500)
Glynco Jetport

Weather History for KBQK - December, 2014

Change the Weather History Date:

Sunday, December 7, 2014

  Actual Average Record
Temperature  
Mean Temperature 58 °F -  
Max Temperature 64 °F 67 °F 87 °F (1982)
Min Temperature 53 °F 44 °F 20 °F (1937)
Degree Days  
Heating Degree Days 6    
Growing Degree Days 8 (Base 50)    
Moisture  
Dew Point 51 °F    
Average Humidity 76    
Maximum Humidity 94    
Minimum Humidity 67    
Precipitation  
Precipitation 0.00 in - - ()
Sea Level Pressure  
Sea Level Pressure 30.18 in    
Wind  
Wind Speed 7 mph (NNE)    
Max Wind Speed 16 mph    
Max Gust Speed 24 mph    
Visibility 10 miles    
Events      
Averages and records for this station are not official NWS values.
T = Trace of Precipitation, MM = Missing Value Source: NWS Daily Summary

Daily Weather History Graph

Daily Weather History Graph

Search for Another Location

Airport or City:

Trip Planner

Search our weather history database for the weather conditions in past years. The results will help you decide how hot, cold, wet, or windy it might be!

Date:

Astronomy

Dec. 07, 2014 Rise Set
Actual Time 7:11 AM EST 5:23 PM EST
Civil Twilight 6:45 AM EST 5:49 PM EST
Nautical Twilight 6:14 AM EST 6:19 PM EST
Astronomical Twilight 5:45 AM EST 6:49 PM EST
Moon 6:46 PM EST (12/7) 7:57 AM EST (12/7)
Length of Visible Light 11h 04m
Length of Day
10h 11m
Full, 98% of the Moon is Illuminated
Dec 7
Full
Dec 14
Last Quarter
Dec 21
New
Dec 28
First Quarter
Jan 4
Full

Hourly Weather History & Observations

Time (EST) Temp. Dew Point Humidity Pressure Visibility Wind Dir Wind Speed Gust Speed Precip Events Conditions
12:15 AM 64.4 °F 62.6 °F 94% 30.09 in 10.0 mi WSW 3.5 mph - N/A   Overcast
12:35 AM 64.4 °F 62.6 °F 94% 30.09 in 10.0 mi West 3.5 mph - N/A   Overcast
12:55 AM 64.4 °F 62.6 °F 94% 30.08 in 10.0 mi West 3.5 mph - N/A   Overcast
1:15 AM 64.4 °F 62.6 °F 94% 30.08 in 10.0 mi West 5.8 mph - N/A   Overcast
1:35 AM 64.4 °F 60.8 °F 88% 30.09 in 10.0 mi WNW 4.6 mph - N/A   Overcast
1:55 AM 64.4 °F 60.8 °F 88% 30.08 in 10.0 mi NW 4.6 mph - N/A   Overcast
2:15 AM 64.4 °F 60.8 °F 88% 30.08 in 10.0 mi NW 5.8 mph - N/A   Overcast
2:35 AM 64.4 °F 60.8 °F 88% 30.08 in 10.0 mi NW 3.5 mph - N/A   Overcast
2:55 AM 64.4 °F 60.8 °F 88% 30.08 in 10.0 mi NNW 3.5 mph - N/A   Overcast
3:15 AM 64.4 °F 60.8 °F 88% 30.09 in 10.0 mi North 5.8 mph - N/A   Overcast
3:35 AM 62.6 °F 59.0 °F 88% 30.09 in 10.0 mi NNW 6.9 mph - N/A   Overcast
3:55 AM 62.6 °F 55.4 °F 77% 30.09 in 10.0 mi NNW 5.8 mph 17.3 mph N/A   Overcast
4:15 AM 62.6 °F 55.4 °F 77% 30.10 in 10.0 mi NNW 6.9 mph - N/A   Overcast
4:35 AM 62.6 °F 55.4 °F 77% 30.10 in 10.0 mi NNW 8.1 mph - N/A   Overcast
4:55 AM 60.8 °F 55.4 °F 82% 30.10 in 10.0 mi NNW 6.9 mph - N/A   Overcast
5:15 AM 60.8 °F 53.6 °F 77% 30.11 in 10.0 mi North 8.1 mph 16.1 mph N/A   Overcast
5:35 AM 60.8 °F 53.6 °F 77% 30.11 in 10.0 mi NNW 3.5 mph - N/A   Overcast
5:55 AM 60.8 °F 53.6 °F 77% 30.12 in 10.0 mi NNW 5.8 mph - N/A   Overcast
6:15 AM 60.8 °F 53.6 °F 77% 30.12 in 10.0 mi NNW 6.9 mph - N/A   Overcast
6:35 AM 60.8 °F 51.8 °F 72% 30.13 in 10.0 mi North 5.8 mph - N/A   Overcast
6:55 AM 59.0 °F 51.8 °F 77% 30.13 in 10.0 mi North 6.9 mph - N/A   Overcast
7:15 AM 59.0 °F 51.8 °F 77% 30.14 in 10.0 mi North 8.1 mph - N/A   Overcast
7:35 AM 59.0 °F 51.8 °F 77% 30.16 in 10.0 mi NNW 9.2 mph - N/A   Overcast
7:55 AM 57.2 °F 50.0 °F 77% 30.17 in 10.0 mi North 8.1 mph - N/A   Overcast
8:15 AM 57.2 °F 51.8 °F 82% 30.18 in 10.0 mi NNW 5.8 mph - N/A   Overcast
8:35 AM 57.2 °F 50.0 °F 77% 30.19 in 10.0 mi North 3.5 mph - N/A   Overcast
8:55 AM 59.0 °F 50.0 °F 72% 30.19 in 10.0 mi North 4.6 mph - N/A   Overcast
9:15 AM 59.0 °F 50.0 °F 72% 30.20 in 10.0 mi NNE 5.8 mph - N/A   Overcast
9:35 AM 59.0 °F 50.0 °F 72% 30.21 in 10.0 mi NNE 8.1 mph - N/A   Overcast
9:55 AM 59.0 °F 50.0 °F 72% 30.21 in 10.0 mi NNE 6.9 mph - N/A   Overcast
10:15 AM 59.0 °F 50.0 °F 72% 30.22 in 10.0 mi NNE 6.9 mph - N/A   Overcast
10:35 AM 57.2 °F 50.0 °F 77% 30.22 in 10.0 mi NNE 5.8 mph - N/A   Overcast
10:55 AM 57.2 °F 50.0 °F 77% 30.22 in 10.0 mi North 6.9 mph - N/A   Overcast
11:15 AM 59.0 °F 50.0 °F 72% 30.22 in 10.0 mi North 5.8 mph - N/A   Overcast
11:35 AM 59.0 °F 50.0 °F 72% 30.21 in 10.0 mi NE 8.1 mph - N/A   Overcast
11:55 AM 59.0 °F 50.0 °F 72% 30.20 in 10.0 mi NNE 9.2 mph - N/A   Overcast
12:15 PM 59.0 °F 50.0 °F 72% 30.19 in 10.0 mi NNE 6.9 mph - N/A   Overcast
12:35 PM 59.0 °F 50.0 °F 72% 30.18 in 10.0 mi NNE 8.1 mph - N/A   Overcast
12:55 PM 59.0 °F 50.0 °F 72% 30.18 in 10.0 mi NNE 11.5 mph 17.3 mph N/A   Overcast
1:15 PM 59.0 °F 50.0 °F 72% 30.18 in 10.0 mi NNE 11.5 mph 16.1 mph N/A   Overcast
1:35 PM 57.2 °F 50.0 °F 77% 30.18 in 10.0 mi NNE 12.7 mph 19.6 mph N/A   Overcast
1:55 PM 57.2 °F 50.0 °F 77% 30.18 in 10.0 mi NNE 9.2 mph 16.1 mph N/A   Overcast
2:15 PM 57.2 °F 50.0 °F 77% 30.18 in 10.0 mi NNE 12.7 mph 18.4 mph N/A   Overcast
2:35 PM 55.4 °F 48.2 °F 77% 30.19 in 10.0 mi NNE 10.4 mph 17.3 mph N/A   Overcast
2:55 PM 55.4 °F 48.2 °F 77% 30.19 in 10.0 mi NE 10.4 mph - N/A   Overcast
3:15 PM 55.4 °F 46.4 °F 72% 30.19 in 10.0 mi NE 13.8 mph 20.7 mph N/A   Overcast
3:35 PM 55.4 °F 46.4 °F 72% 30.20 in 10.0 mi NNE 12.7 mph 20.7 mph N/A   Overcast
3:55 PM 55.4 °F 46.4 °F 72% 30.20 in 10.0 mi NNE 9.2 mph 16.1 mph N/A   Overcast
4:15 PM 53.6 °F 46.4 °F 77% 30.21 in 10.0 mi NNE 8.1 mph 16.1 mph N/A   Overcast
4:35 PM 53.6 °F 46.4 °F 77% 30.21 in 10.0 mi NNE 10.4 mph 18.4 mph N/A   Overcast
4:55 PM 53.6 °F 46.4 °F 77% 30.22 in 10.0 mi NNE 8.1 mph 16.1 mph N/A   Overcast
5:15 PM 53.6 °F 48.2 °F 82% 30.23 in 10.0 mi NE 9.2 mph - N/A   Overcast
5:35 PM 53.6 °F 46.4 °F 77% 30.23 in 10.0 mi NE 9.2 mph 16.1 mph N/A   Overcast
5:55 PM 53.6 °F 46.4 °F 77% 30.24 in 10.0 mi NNE 8.1 mph 17.3 mph N/A   Overcast
6:15 PM 53.6 °F 46.4 °F 77% 30.24 in 10.0 mi NE 10.4 mph 17.3 mph N/A   Overcast
6:35 PM 53.6 °F 46.4 °F 77% 30.25 in 10.0 mi NE 10.4 mph - N/A   Overcast
6:55 PM 53.6 °F 46.4 °F 77% 30.26 in 10.0 mi NE 8.1 mph 16.1 mph N/A   Overcast
7:15 PM 53.6 °F 46.4 °F 77% 30.26 in 10.0 mi NE 8.1 mph - N/A   Overcast
7:35 PM 55.4 °F 46.4 °F 72% 30.25 in 10.0 mi NNE 11.5 mph - N/A   Overcast
7:55 PM 55.4 °F 44.6 °F 67% 30.26 in 10.0 mi NE 10.4 mph 18.4 mph N/A   Overcast
8:15 PM 55.4 °F 44.6 °F 67% 30.25 in 10.0 mi NE 10.4 mph 19.6 mph N/A   Overcast
8:35 PM 55.4 °F 44.6 °F 67% 30.25 in 10.0 mi NE 11.5 mph - N/A   Overcast
8:55 PM 55.4 °F 44.6 °F 67% 30.25 in 10.0 mi NE 11.5 mph 17.3 mph N/A   Overcast
9:15 PM 55.4 °F 44.6 °F 67% 30.26 in 10.0 mi NE 15.0 mph 24.2 mph N/A   Overcast
9:35 PM 55.4 °F 44.6 °F 67% 30.24 in 10.0 mi NE 10.4 mph 17.3 mph N/A   Overcast
9:55 PM 55.4 °F 44.6 °F 67% 30.24 in 10.0 mi NNE 12.7 mph 19.6 mph N/A   Overcast
10:15 PM 55.4 °F 44.6 °F 67% 30.24 in 10.0 mi NE 11.5 mph 18.4 mph N/A   Overcast
10:35 PM 55.4 °F 44.6 °F 67% 30.24 in 10.0 mi NE 15.0 mph 24.2 mph N/A   Overcast
10:55 PM 55.4 °F 44.6 °F 67% 30.24 in 10.0 mi NE 12.7 mph 24.2 mph N/A   Overcast
11:15 PM 55.4 °F 44.6 °F 67% 30.24 in 10.0 mi NE 15.0 mph 24.2 mph N/A   Overcast
11:35 PM 55.4 °F 46.4 °F 72% 30.23 in 10.0 mi NE 16.1 mph 23.0 mph N/A   Overcast
11:55 PM 55.4 °F 46.4 °F 72% 30.23 in 10.0 mi NE 11.5 mph 18.4 mph N/A   Overcast